| time (UTC) | temp F | wind direction | speed MPH | gust MPH | rain 1hr in | rain 24hr in | rain mn in | humidity % | barometer mb |
| 20260506231350 | 56 | 298 | 0.0 | 0.0 | 0.00 | 0.00 | 0.00 | 84 | 1018.8 |
| 20260506225243 | 55 | 296 | 0.0 | 2.0 | 0.00 | 0.00 | 0.00 | 85 | 1018.8 |
| 20260506224230 | 55 | 295 | 0.0 | 0.0 | 0.00 | 0.00 | 0.00 | 85 | 1018.8 |
| 20260506223234 | 55 | 295 | 0.0 | 0.0 | 0.00 | 0.00 | 0.00 | 85 | 1018.9 |
| 20260506222245 | 56 | 295 | 0.0 | 0.0 | 0.00 | 0.00 | 0.00 | 85 | 1018.9 |
| 20260506221214 | 55 | 295 | 0.0 | 0.0 | 0.00 | 0.00 | 0.00 | 85 | 1018.9 |
| 20260506220231 | 55 | 294 | 0.0 | 2.0 | 0.00 | 0.00 | 0.00 | 85 | 1019.0 |
| 20260506215205 | 55 | 283 | 0.0 | 0.0 | 0.00 | 0.00 | 0.00 | 86 | 1019.0 |
| 20260506214220 | 55 | 279 | 0.0 | 0.0 | 0.00 | 0.00 | 0.00 | 86 | 1019.1 |
| 20260506213241 | 55 | 288 | 0.0 | 0.0 | 0.00 | 0.00 | 0.00 | 86 | 1019.1 |
| 20260506211124 | 55 | 317 | 0.0 | 0.0 | 0.00 | 0.00 | 0.00 | 85 | 1019.0 |
| 20260506210121 | 54 | 323 | 0.0 | 0.0 | 0.00 | 0.00 | 0.00 | 86 | 1019.0 |
| 20260506203944 | 57 | 225 | 0.0 | 2.0 | 0.00 | 0.00 | 0.00 | 80 | 1018.9 |
| 20260506202916 | 57 | 232 | 0.0 | 5.0 | 0.00 | 0.00 | 0.00 | 79 | 1018.8 |
| 20260506201842 | 57 | 206 | 0.0 | 3.0 | 0.00 | 0.00 | 0.00 | 81 | 1018.8 |
| 20260506200835 | 56 | 191 | 0.0 | 5.0 | 0.00 | 0.00 | 0.00 | 81 | 1018.7 |
| 20260506195845 | 56 | 224 | 1.0 | 5.0 | 0.00 | 0.00 | 0.00 | 82 | 1018.7 |
| 20260506194838 | 56 | 174 | 1.0 | 6.0 | 0.00 | 0.00 | 0.00 | 82 | 1018.8 |
| 20260506193903 | 56 | 222 | 2.0 | 6.0 | 0.00 | 0.00 | 0.00 | 81 | 1018.6 |
| 20260506192859 | 56 | 225 | 1.0 | 3.0 | 0.00 | 0.00 | 0.00 | 82 | 1018.6 |
| 20260506191840 | 56 | 201 | 0.0 | 2.0 | 0.00 | 0.00 | 0.00 | 83 | 1018.6 |
| 20260506190857 | 55 | 228 | 1.0 | 6.0 | 0.00 | 0.00 | 0.00 | 83 | 1018.6 |
| 20260506185906 | 55 | 200 | 1.0 | 5.0 | 0.00 | 0.00 | 0.00 | 82 | 1018.5 |
| 20260506184856 | 56 | 184 | 1.0 | 6.0 | 0.00 | 0.00 | 0.00 | 82 | 1018.4 |
| 20260506183841 | 56 | 159 | 1.0 | 6.0 | 0.00 | 0.00 | 0.00 | 81 | 1018.4 |
| 20260506181752 | 56 | 190 | 0.0 | 1.0 | 0.00 | 0.00 | 0.00 | 83 | 1018.3 |
| 20260506175612 | 55 | 219 | 2.0 | 10.0 | 0.00 | 0.00 | 0.00 | 85 | 1018.4 |
| 20260506174553 | 55 | 208 | 2.0 | 10.0 | 0.00 | 0.00 | 0.00 | 84 | 1017.5 |
| 20260506173543 | 55 | 194 | 1.0 | 6.0 | 0.00 | 0.00 | 0.00 | 84 | 1018.2 |
| 20260506172508 | 55 | 226 | 1.0 | 6.0 | 0.00 | 0.00 | 0.00 | 85 | 1017.9 |
| 20260506171511 | 55 | 220 | 1.0 | 4.0 | 0.00 | 0.00 | 0.00 | 85 | 1017.8 |
| 20260506165407 | 55 | 181 | 1.0 | 6.0 | 0.00 | 0.00 | 0.00 | 85 | 1017.7 |
| 20260506164344 | 55 | 167 | 1.0 | 6.0 | 0.00 | 0.00 | 0.00 | 85 | 1017.9 |
| 20260506163323 | 55 | 176 | 1.0 | 4.0 | 0.00 | 0.00 | 0.00 | 85 | 1017.9 |
| 20260506162332 | 55 | 218 | 0.0 | 1.0 | 0.00 | 0.00 | 0.00 | 85 | 1018.2 |
| 20260506160142 | 55 | 194 | 0.0 | 4.0 | 0.00 | 0.00 | 0.00 | 86 | 1017.9 |
| 20260506155205 | 55 | 226 | 1.0 | 6.0 | 0.00 | 0.00 | 0.00 | 87 | 1017.8 |
| 20260506154159 | 54 | 159 | 1.0 | 6.0 | 0.00 | 0.00 | 0.00 | 87 | 1017.5 |
| 20260506153209 | 54 | 213 | 1.0 | 6.0 | 0.00 | 0.00 | 0.00 | 87 | 1017.5 |
| 20260506152145 | 54 | 177 | 0.0 | 8.0 | 0.00 | 0.00 | 0.00 | 88 | 1017.4 |
| 20260506151144 | 54 | 184 | 0.0 | 6.0 | 0.00 | 0.00 | 0.00 | 88 | 1017.5 |
| 20260506150110 | 54 | 180 | 0.0 | 3.0 | 0.00 | 0.00 | 0.00 | 88 | 1017.6 |
| 20260506145123 | 54 | 190 | 0.0 | 48.0 | 0.00 | 0.00 | 0.00 | 88 | 1017.6 |
| 20260506144106 | 54 | 180 | 0.0 | 2.0 | 0.00 | 0.00 | 0.00 | 88 | 1017.8 |
| 20260506143123 | 53 | 175 | 0.0 | 2.0 | 0.00 | 0.00 | 0.00 | 88 | 1017.4 |
| 20260506135813 | 53 | 233 | 1.0 | 8.0 | 0.00 | 0.00 | 0.00 | 89 | 1017.4 |
| 20260506132532 | 53 | 184 | 7.0 | 73.0 | 0.00 | 0.00 | 0.00 | 89 | 1017.3 |
| 20260506131544 | 53 | 225 | 35.0 | 131.0 | 0.00 | 0.00 | 0.00 | 89 | 1017.4 |
| 20260506130609 | 53 | 221 | 18.0 | 55.0 | 0.00 | 0.00 | 0.00 | 90 | 1017.0 |
| 20260506124444 | 53 | 197 | 1.0 | 23.0 | 0.00 | 0.00 | 0.00 | 91 | 1016.9 |
| 20260506123420 | 53 | 175 | 0.0 | 0.0 | 0.00 | 0.00 | 0.00 | 91 | 1016.9 |
| 20260506121320 | 52 | 218 | 0.0 | 0.0 | 0.00 | 0.00 | 0.00 | 91 | 1016.9 |
| 20260506120306 | 52 | 218 | 0.0 | 0.0 | 0.00 | 0.00 | 0.00 | 92 | 1016.8 |
| 20260506115252 | 52 | 218 | 0.0 | 0.0 | 0.00 | 0.00 | 0.00 | 92 | 1016.8 |
| 20260506114245 | 52 | 230 | 0.0 | 10.0 | 0.00 | 0.00 | 0.00 | 93 | 1016.8 |
| 20260506113233 | 51 | 241 | 0.0 | 0.0 | 0.00 | 0.00 | 0.00 | 93 | 1016.6 |
| 20260506112235 | 51 | 242 | 0.0 | 0.0 | 0.00 | 0.00 | 0.00 | 93 | 1016.5 |
| 20260506111247 | 51 | 242 | 0.0 | 0.0 | 0.00 | 0.00 | 0.00 | 93 | 1016.5 |
| 20260506110247 | 51 | 242 | 0.0 | 0.0 | 0.00 | 0.00 | 0.00 | 94 | 1016.4 |
| 20260506105305 | 50 | 242 | 0.0 | 0.0 | 0.00 | 0.00 | 0.00 | 94 | 1016.3 |
| 20260506104254 | 50 | 242 | 0.0 | 0.0 | 0.00 | 0.00 | 0.00 | 93 | 1016.1 |
| 20260506103302 | 50 | 242 | 0.0 | 0.0 | 0.00 | 0.00 | 0.00 | 93 | 1016.1 |
| 20260506102311 | 49 | 242 | 0.0 | 0.0 | 0.00 | 0.00 | 0.00 | 93 | 1016.1 |
| 20260506101335 | 49 | 242 | 0.0 | 0.0 | 0.00 | 0.00 | 0.00 | 94 | 1016.1 |
| 20260506095306 | 48 | 242 | 0.0 | 0.0 | 0.00 | 0.00 | 0.00 | 93 | 1016.0 |
| 20260506094233 | 48 | 242 | 0.0 | 0.0 | 0.00 | 0.00 | 0.00 | 93 | 1015.9 |
| 20260506093229 | 48 | 242 | 0.0 | 0.0 | 0.00 | 0.00 | 0.00 | 93 | 1015.7 |
| 20260506091119 | 48 | 242 | 0.0 | 0.0 | 0.00 | 0.00 | 0.00 | 93 | 1015.7 |
| 20260506085045 | 48 | 242 | 0.0 | 0.0 | 0.00 | 0.00 | 0.00 | 93 | 1015.7 |
| 20260506082920 | 48 | 242 | 0.0 | 0.0 | 0.00 | 0.00 | 0.00 | 92 | 1015.5 |
| 20260506081922 | 49 | 242 | 0.0 | 0.0 | 0.00 | 0.00 | 0.00 | 92 | 1015.5 |
| 20260506080943 | 49 | 242 | 0.0 | 0.0 | 0.00 | 0.00 | 0.00 | 92 | 1015.3 |
| 20260506071705 | 49 | 242 | 0.0 | 0.0 | 0.00 | 0.00 | 0.00 | 92 | 1015.0 |
| 20260506061248 | 51 | 242 | 0.0 | 0.0 | 0.00 | 0.00 | 0.00 | 90 | 1014.6 |
| 20260506060300 | 51 | 242 | 0.0 | 0.0 | 0.00 | 0.00 | 0.00 | 90 | 1014.6 |
| 20260506051134 | 52 | 242 | 0.0 | 0.0 | 0.00 | 0.00 | 0.00 | 89 | 1014.1 |
| 20260506044919 | 53 | 242 | 0.0 | 0.0 | 0.00 | 0.00 | 0.00 | 88 | 1013.8 |
| 20260506043936 | 53 | 242 | 0.0 | 0.0 | 0.00 | 0.00 | 0.00 | 88 | 1013.8 |
| 20260506041835 | 53 | 242 | 0.0 | 0.0 | 0.00 | 0.00 | 0.00 | 87 | 1013.6 |
| 20260506040855 | 54 | 242 | 0.0 | 0.0 | 0.00 | 0.00 | 0.00 | 86 | 1013.5 |
| 20260506035842 | 54 | 242 | 0.0 | 0.0 | 0.00 | 0.00 | 0.00 | 86 | 1013.5 |
| 20260506034835 | 55 | 242 | 0.0 | 0.0 | 0.00 | 0.00 | 0.00 | 84 | 1013.4 |
| 20260506033814 | 55 | 242 | 0.0 | 0.0 | 0.00 | 0.00 | 0.00 | 83 | 1013.3 |
| 20260506032818 | 56 | 242 | 0.0 | 0.0 | 0.00 | 0.00 | 0.00 | 83 | 1013.3 |
| 20260506031838 | 56 | 242 | 0.0 | 0.0 | 0.00 | 0.00 | 0.00 | 82 | 1013.3 |
| 20260506030810 | 57 | 242 | 0.0 | 0.0 | 0.00 | 0.00 | 0.00 | 80 | 1013.3 |
| 20260506025740 | 58 | 242 | 0.0 | 0.0 | 0.00 | 0.00 | 0.00 | 79 | 1013.3 |
| 20260506024751 | 59 | 242 | 0.0 | 1.0 | 0.00 | 0.00 | 0.00 | 78 | 1013.2 |
| 20260506023756 | 60 | 242 | 0.0 | 0.0 | 0.00 | 0.00 | 0.00 | 78 | 1013.1 |
| 20260506021656 | 59 | 242 | 0.0 | 0.0 | 0.00 | 0.00 | 0.00 | 82 | 1013.2 |
| 20260506015535 | 62 | 194 | 0.0 | 0.0 | 0.00 | 0.00 | 0.00 | 75 | 1013.0 |
| 20260506014501 | 64 | 200 | 0.0 | 2.0 | 0.00 | 0.00 | 0.00 | 74 | 1012.9 |
| 20260506013452 | 64 | 177 | 0.0 | 6.0 | 0.00 | 0.00 | 0.00 | 72 | 1012.9 |
| 20260506012434 | 64 | 172 | 0.0 | 0.0 | 0.00 | 0.00 | 0.00 | 75 | 1013.0 |
| 20260506011416 | 65 | 190 | 0.0 | 6.0 | 0.00 | 0.00 | 0.00 | 73 | 1012.9 |
| 20260506010345 | 65 | 165 | 0.0 | 5.0 | 0.00 | 0.00 | 0.00 | 71 | 1012.8 |
| 20260506005336 | 66 | 219 | 0.0 | 8.0 | 0.00 | 0.00 | 0.00 | 70 | 1012.8 |
| 20260506004352 | 66 | 198 | 1.0 | 8.0 | 0.00 | 0.00 | 0.00 | 70 | 1012.9 |
| 20260506003407 | 66 | 219 | 1.0 | 13.0 | 0.00 | 0.00 | 0.00 | 70 | 1012.9 |
| 20260506002401 | 66 | 195 | 3.0 | 13.0 | 0.00 | 0.00 | 0.00 | 69 | 1012.8 |
| 20260506000254 | 67 | 190 | 2.0 | 15.0 | 0.00 | 0.00 | 0.00 | 70 | 1012.1 |
| 20260505235306 | 67 | 216 | 3.0 | 20.0 | 0.00 | 0.00 | 0.00 | 69 | 1013.1 |
| 20260505234319 | 68 | 214 | 2.0 | 144.0 | 0.00 | 0.00 | 0.00 | 69 | 1013.2 |
| 20260505233315 | 67 | 130 | 21.0 | 81.0 | 0.00 | 0.00 | 0.00 | 66 | 1013.2 |